Wind_Speed
41 41 41 43 44 44 44 45 44 43 43 43 44 44 43 43 42 44 45 45 46 44 44 46 45 45 46 47 48 49 50 51 51 52 53 54 54 54 54 55 56 57 58 58 59 59 58 57 56 55 55 55 56 56 55 55 54 54 54 54 53 54 54 54 55 55 55 55 55 56 56 56 56 57 57 57 58 58 58 57 56 56 55 53 52 51
45 45 46 48 47 47 48 49 47 46 46 46 46 46 46 47 47 48 48 49 50 49 48 49 49 48 49 50 51 51 51 52 53 53 53 54 56 56 56 57 58 59 60 61 61 61 61 61 59 59 58 58 58 58 59 58 58 57 57 57 56 56 56 56 57 57 57 58 58 58 57 58 58 59 60 59 60 60 60 61 61 60 60 58 57 56
48 48 52 52 51 52 53 53 52 51 50 49 49 49 48 49 49 49 50 51 51 51 52 52 52 52 52 54 56 55 55 55 57 58 58 58 60 61 61 62 63 63 63 63 64 64 64 63 63 62 62 62 62 62 62 62 62 62 62 61 60 60 59 59 59 60 60 60 61 61 61 60 61 61 62 62 62 62 62 63 63 63 63 63 62 61
50 52 56 56 56 56 57 58 58 57 56 55 54 54 54 54 53 52 53 54 54 54 54 54 53 53 55 58 60 59 58 59 60 62 63 64 65 66 66 68 68 68 68 67 68 68 68 68 67 67 66 65 65 65 66 66 65 66 65 65 64 64 63 62 62 62 62 63 63 63 64 64 64 64 64 64 64 64 64 65 65 66 66 66 66 65
52 55 58 58 58 58 58 61 62 62 60 60 60 59 59 60 59 58 58 59 59 59 59 58 56 55 57 60 64 64 62 63 64 64 65 67 67 68 68 70 70 69 69 69 69 69 69 70 71 70 70 70 69 69 69 69 68 68 68 67 67 67 67 66 66 66 66 66 67 67 67 68 68 68 68 68 67 67 67 67 67 68 68 68 68 68
52 56 58 59 59 59 59 61 64 63 63 64 65 65 65 66 66 65 64 63 63 63 63 63 61 58 57 59 64 66 65 65 66 65 66 67 66 67 67 69 69 69 69 69 69 70 70 71 72 72 72 73 72 72 72 72 72 72 71 71 71 71 70 70 69 69 69 69 69 70 71 71 71 71 70 70 70 70 70 69 69 69 70 70 70 70
54 57 59 60 60 61 61 63 64 65 65 67 69 71 71 71 71 69 67 64 61 59 58 59 59 56 51 54 60 62 62 63 64 63 64 66 66 66 68 69 69 70 70 71 71 71 72 73 74 74 75 75 75 75 75 74 73 73 73 73 72 72 71 71 70 69 68 67 67 68 69 71 72 72 73 72 72 72 72 72 72 72 72 72 72 72
57 59 60 61 62 63 64 65 65 66 66 67 70 72 72 71 70 68 65 61 58 56 54 57 61 56 50 54 60 60 61 64 66 65 66 68 70 71 72 72 73 73 74 75 75 74 74 75 75 75 76 77 77 78 78 78 78 77 76 75 74 73 73 73 73 72 70 69 69 69 69 69 70 72 73 74 74 74 74 74 75 75 75 75 75 75
61 61 62 62 63 63 63 63 63 63 62 62 63 65 66 66 66 65 63 61 61 59 57 62 67 62 55 58 63 63 65 69 71 71 71 73 74 76 77 77 78 80 80 81 81 79 78 78 78 77 78 78 77 76 78 80 81 80 80 79 78 77 77 77 77 76 75 74 74 74 73 73 73 73 73 74 75 76 76 77 77 78 78 78 78 78
60 60 61 60 61 61 61 62 62 62 62 62 63 63 64 65 66 66 65 66 67 64 63 68 71 68 63 63 66 68 70 73 76 77 77 78 79 80 81 82 82 84 85 86 87 87 85 84 83 81 81 81 80 77 77 80 82 82 82 83 83 83 83 83 83 82 82 81 80 79 79 79 78 78 77 77 78 78 79 79 79 79 80 80 80 81
59 59 59 59 60 61 62 64 65 65 66 66 67 67 68 68 69 70 71 72 72 69 70 74 74 73 70 69 72 73 74 77 81 84 85 86 87 87 88 88 87 88 89 90 92 92 92 91 89 87 85 85 84 81 80 82 84 86 87 88 89 89 89 88 88 87 87 86 86 85 85 85 84 84 83 82 81 81 81 81 82 82 82 83 84 84
60 60 61 60 62 63 66 67 68 70 70 71 71 71 73 74 75 76 76 77 77 74 75 77 78 78 76 76 79 80 81 83 86 91 93 93 94 94 95 95 94 93 93 94 96 97 97 97 96 95 93 91 89 87 85 86 87 89 91 92 93 94 94 94 93 92 91 90 90 90 90 90 90 90 89 88 87 87 86 85 85 86 86 86 86 87
62 63 63 64 65 67 69 71 72 73 74 74 75 76 77 78 80 80 80 81 81 79 80 81 83 83 82 84 87 89 91 93 96 100 101 101 101 101 102 102 101 99 98 98 100 101 102 102 101 100 99 98 97 95 92 91 92 93 94 96 97 98 98 98 98 98 97 96 95 95 95 95 95 95 94 94 93 93 92 90 89 89 90 90 90 89
65 65 67 69 71 72 73 74 75 75 77 78 79 80 80 82 84 84 84 85 86 86 86 87 88 89 90 92 95 98 100 103 106 108 108 108 108 108 108 108 106 105 104 103 104 105 105 106 105 105 104 104 104 102 100 98 98 98 99 99 100 101 102 102 102 102 102 102 101 101 101 100 100 100 100 99 98 98 97 96 95 93 93 94 94 93
68 68 70 73 74 74 76 78 78 79 81 82 82 83 85 87 89 89 88 90 92 93 93 92 94 96 97 100 102 106 108 109 111 112 112 113 113 113 113 111 110 109 108 107 107 107 108 108 109 108 108 107 107 107 107 105 104 104 104 104 104 105 105 106 105 105 105 106 106 105 105 104 104 104 104 104 103 103 102 102 100 99 98 98 98 98
72 71 72 75 76 77 80 82 82 83 84 86 86 87 89 91 93 95 95 96 99 100 99 98 101 104 105 107 109 111 113 114 114 114 115 116 116 117 116 114 112 111 111 111 110 110 110 110 110 110 110 110 110 110 110 109 109 108 109 109 109 109 109 109 109 109 109 109 109 109 109 108 108 108 108 108 108 108 107 107 106 105 104 103 102 102
75 74 74 77 79 80 83 85 86 87 88 89 90 90 92 94 96 99 101 102 104 106 105 104 107 110 111 112 113 114 115 116 117 117 118 119 119 118 116 115 114 113 113 113 113 113 112 112 111 111 111 112 112 113 113 112 112 111 112 112 112 113 112 113 113 113 113 113 113 113 113 112 112 111 111 111 112 112 112 112 112 111 110 109 108 107
79 77 76 77 80 81 84 87 90 91 91 93 93 94 96 98 100 102 105 106 108 111 112 112 112 113 114 114 115 116 117 118 120 121 121 121 120 119 118 116 116 115 114 113 113 113 113 113 112 112 112 112 113 114 115 115 115 114 114 114 115 115 115 114 115 116 116 117 117 117 118 117 117 116 115 115 115 115 116 116 116 116 115 115 114 113
84 81 79 78 81 84 85 89 92 94 95 96 97 99 100 102 104 107 109 111 113 117 119 118 117 115 115 116 118 120 121 121 122 122 121 120 119 119 118 118 117 116 115 114 113 112 112 112 112 112 112 113 113 114 115 116 116 116 116 116 116 116 117 117 117 117 118 119 120 121 121 122 122 121 120 119 119 119 120 120 120 120 120 119 119 119
88 87 84 82 84 87 89 92 95 98 99 100 101 102 104 106 109 111 113 116 120 124 124 123 121 119 118 119 122 123 124 123 122 121 120 119 118 118 117 117 116 115 114 113 112 111 111 110 111 111 112 113 113 114 115 116 117 117 117 117 117 118 118 118 119 120 121 121 122 123 124 124 125 125 125 125 124 124 124 124 124 124 124 124 124 123
92 92 90 87 88 91 93 96 99 101 102 104 105 107 109 111 113 115 117 121 125 127 127 127 126 124 123 123 125 126 125 124 122 120 119 118 117 116 115 114 113 112 111 111 110 110 109 109 109 109 110 111 111 112 113 114 115 116 116 116 117 118 118 119 119 120 122 123 124 125 126 127 127 127 128 128 128 129 129 128 128 128 128 129 129 128
95 96 95 93 93 94 97 101 103 104 106 108 109 110 112 114 117 120 123 125 127 128 130 130 130 129 127 126 127 127 125 123 121 119 117 116 114 113 112 111 110 109 109 108 107 107 106 106 106 106 107 107 109 110 110 111 112 113 113 113 114 115 117 118 119 119 121 122 123 124 126 127 128 129 129 130 131 132 132 133 132 132 132 132 133 133
99 100 100 99 97 97 99 103 106 108 109 111 113 114 115 118 122 126 128 128 129 130 131 132 134 132 129 129 128 126 124 121 120 118 116 114 112 110 109 108 107 106 105 105 104 104 104 104 104 105 105 105 106 107 108 109 110 111 111 111 111 112 113 115 116 117 119 120 121 123 124 126 127 128 129 130 132 133 134 135 136 136 136 136 136 136
103 104 105 104 102 101 102 105 109 111 113 115 117 119 121 124 126 129 130 131 132 132 132 133 135 133 131 129 128 125 122 120 118 116 114 112 110 108 107 105 104 104 103 103 103 104 104 104 105 105 105 105 105 106 107 108 109 110 110 111 111 111 112 112 113 114 115 117 119 120 122 123 125 127 128 129 130 132 133 135 137 138 138 139 139 140
107 108 109 108 108 107 106 108 112 115 118 120 123 125 127 128 129 131 132 133 134 134 134 136 136 134 131 128 125 122 120 118 116 114 112 110 109 108 106 105 104 103 104 104 104 104 105 105 105 105 105 105 105 106 106 107 108 109 110 111 112 112 112 112 112 113 114 115 116 117 119 120 122 124 125 127 128 129 131 132 134 136 138 140 141 142
111 112 112 112 112 112 111 112 117 121 124 126 128 129 130 131 132 132 133 135 136 137 137 138 136 133 130 126 123 121 119 117 115 113 111 110 109 108 107 107 106 106 106 106 106 106 106 106 106 106 106 106 106 106 106 106 107 107 108 110 111 112 112 112 113 113 113 114 114 115 116 118 119 121 123 124 126 127 128 129 131 132 134 137 139 140
115 115 115 115 117 117 117 119 123 127 130 132 132 131 131 131 132 133 135 137 138 139 139 138 135 133 128 122 120 120 120 118 114 112 111 111 110 110 110 110 109 109 109 109 108 108 108 108 107 107 108 107 107 107 107 107 107 108 108 109 109 110 111 112 113 113 114 114 114 114 115 116 117 118 120 121 123 124 125 127 128 129 130 132 134 136
120 120 120 121 122 123 124 127 130 132 134 134 133 132 131 131 131 134 136 138 139 141 140 136 132 130 126 120 118 120 121 119 115 113 112 112 112 112 112 112 112 112 112 111 111 110 110 110 110 110 110 109 109 108 108 108 108 108 108 108 108 108 109 110 111 112 113 114 115 115 116 116 117 118 119 120 121 122 123 124 125 126 127 129 130 132
124 125 125 127 128 129 130 132 134 135 136 136 135 133 132 131 133 135 137 139 140 142 139 132 129 127 122 118 119 120 120 118 117 115 115 114 114 114 113 113 113 113 113 112 112 112 112 112 112 111 111 111 110 109 109 108 108 107 107 107 106 106 107 107 108 109 110 112 113 115 116 117 118 118 119 120 120 121 122 123 123 124 125 126 127 128
129 129 131 133 133 134 135 136 137 138 138 137 136 135 133 133 134 136 137 138 139 138 134 130 128 124 119 119 121 120 118 117 117 118 117 117 116 116 115 114 114 113 113 112 112 112 112 112 112 111 111 110 109 108 107 106 106 105 104 104 104 104 104 104 104 105 106 108 109 111 113 114 116 117 118 119 120 120 121 121 122 123 123 124 125 125
133 134 135 137 137 137 138 138 140 141 140 140 138 135 134 134 136 137 137 136 135 133 130 129 127 122 119 120 121 119 117 117 118 118 117 117 116 116 115 115 114 112 111 110 109 110 110 110 110 109 109 108 107 106 105 104 103 103 102 101 101 101 101 101 102 102 103 104 105 106 107 109 110 112 113 115 117 118 119 120 120 121 122 123 124 124
136 137 138 140 140 140 140 141 142 143 143 142 138 134 134 137 138 137 135 133 131 129 127 126 124 122 122 121 120 119 118 118 118 116 115 114 114 113 113 112 110 109 107 106 106 106 106 106 106 106 106 105 104 103 102 101 101 100 100 99 99 99 99 99 99 100 101 101 102 103 104 105 105 106 108 109 111 112 113 115 116 118 119 120 121 122
139 140 141 143 144 142 142 143 144 146 145 141 136 134 137 139 138 136 133 130 128 126 125 123 123 123 123 121 120 119 118 117 116 114 113 112 111 110 109 108 107 106 105 104 104 103 103 102 103 103 103 102 101 101 100 100 99 98 98 97 97 97 98 98 98 98 99 100 101 102 102 103 103 103 104 105 106 106 107 109 110 112 113 115 116 117
142 143 144 145 146 145 145 145 147 147 144 138 135 136 137 137 136 134 131 127 125 124 123 123 123 123 122 120 119 118 116 114 112 111 110 110 109 107 106 105 105 104 102 102 101 101 100 101 101 102 102 101 101 101 100 99 99 98 97 97 97 97 97 97 97 97 98 98 98 99 100 100 101 101 101 102 103 103 104 105 106 107 109 109 110 111
144 145 145 147 147 147 147 148 148 146 141 137 135 136 135 134 133 131 128 124 122 123 124 124 124 122 121 119 117 114 112 109 108 106 106 106 105 103 102 102 102 101 100 100 100 99 100 100 101 102 101 101 101 100 100 98 98 97 96 96 96 96 96 96 96 96 96 96 97 97 97 97 97 97 97 98 99 100 101 103 104 104 105 106 106 107
146 146 147 148 149 149 148 148 147 143 139 135 133 132 132 131 130 128 125 122 121 122 122 123 122 121 118 116 113 110 108 105 103 102 103 103 102 101 100 101 101 101 100 100 100 100 100 101 101 101 101 100 99 98 97 96 95 95 94 94 93 93 94 94 94 94 95 95 96 96 96 96 95 94 94 95 96 97 98 99 100 100 101 101 102 103
147 148 148 149 150 149 147 146 144 140 135 130 129 130 130 128 126 126 125 121 118 117 118 118 118 116 113 111 108 106 104 101 100 100 101 101 101 100 101 102 102 101 101 101 101 101 101 101 101 100 99 98 97 96 95 95 94 93 93 92 92 92 91 91 91 91 92 92 93 93 94 93 93 93 93 93 94 94 94 95 95 95 96 97 97 98
149 149 149 149 148 147 146 143 139 135 130 127 127 129 127 125 125 125 124 119 114 112 113 113 112 110 108 106 104 103 101 99 97 98 100 101 100 101 102 102 102 101 101 101 101 101 101 100 99 98 96 96 95 95 94 94 93 92 91 91 91 90 90 90 90 89 90 90 90 90 91 91 91 91 91 91 92 91 91 91 91 91 92 93 93 94
149 149 149 148 146 144 142 139 135 131 127 126 127 127 125 123 122 122 120 114 110 109 110 108 106 106 104 103 102 101 99 98 96 97 100 101 101 101 101 101 101 101 100 101 100 100 99 98 97 96 95 95 94 94 93 92 91 91 90 90 90 89 89 89 88 88 88 88 88 88 89 89 90 90 89 89 89 89 88 88 89 89 90 90 90 90
148 147 146 144 142 139 137 134 131 128 126 125 127 126 123 120 119 117 115 111 108 107 105 103 103 103 103 102 101 99 98 97 96 97 99 101 101 100 100 100 99 99 99 99 99 98 98 97 96 95 94 93 93 93 92 91 91 90 90 89 89 88 88 88 88 88 88 87 87 88 88 88 88 88 88 88 87 87 87 87 88 89 89 89 89 88
144 142 141 139 136 134 133 131 128 124 122 124 125 123 119 116 115 113 111 109 107 105 102 100 101 101 101 101 100 98 96 97 97 97 98 99 99 99 99 99 99 98 98 97 97 96 96 95 94 93 92 92 91 91 90 90 90 90 90 89 89 88 88 88 88 88 87 87 87 88 88 88 87 87 87 87 86 86 87 88 87 87 88 88 88 88
140 138 135 133 130 129 128 127 124 119 117 119 121 118 115 113 111 110 109 108 107 103 101 100 100 100 100 99 98 97 96 96 97 97 97 97 98 98 98 98 98 97 96 95 95 94 94 93 92 92 91 91 90 90 89 89 89 89 89 89 88 88 88 88 88 87 87 87 88 88 88 87 87 87 87 86 85 85 86 87 87 86 86 87 87 87
135 134 131 128 126 125 122 119 117 115 112 113 114 113 112 110 109 108 108 108 106 103 101 100 99 98 97 97 97 96 95 94 95 95 96 96 97 97 97 96 95 94 94 93 93 92 92 91 91 91 91 90 89 89 88 88 88 88 88 88 88 88 88 87 87 87 87 87 87 87 87 87 87 87 86 86 85 84 85 86 86 86 85 85 85 86
131 130 128 124 119 118 115 113 112 112 109 108 109 110 110 109 107 107 107 107 104 102 100 99 97 96 95 95 94 94 93 94 95 96 96 97 97 96 95 94 93 92 91 91 91 90 90 89 89 90 90 90 89 88 88 87 87 87 87 87 87 87 86 86 85 85 86 86 86 86 86 86 87 86 86 85 84 84 84 85 85 85 85 85 85 85
126 124 121 116 111 110 110 108 109 109 107 106 107 108 108 109 108 107 106 104 102 101 99 98 95 93 92 91 91 91 92 94 95 96 96 96 96 95 94 93 92 91 90 89 89 88 88 88 88 89 89 89 88 87 87 86 86 85 85 85 85 85 84 84 83 84 84 84 84 84 85 85 85 85 84 84 83 82 83 83 83 84 85 84 85 85
117 114 111 107 103 104 105 106 107 108 106 105 106 107 108 108 107 106 104 102 99 98 96 95 93 91 89 88 88 89 90 91 92 92 93 94 94 94 93 92 90 89 88 87 86 86 86 86 86 87 87 87 86 85 85 85 85 84 84 84 84 83 82 82 82 83 83 83 83 83 84 83 83 83 83 82 81 81 80 80 81 82 82 83 83 84
107 105 103 101 100 102 104 105 106 107 106 106 107 108 108 107 105 104 103 100 98 95 94 93 92 90 88 88 88 88 89 89 89 89 90 91 92 91 91 90 88 86 85 85 84 84 84 84 85 85 86 86 85 85 85 85 84 83 83 83 83 82 81 81 81 82 83 83 83 83 83 82 82 82 81 81 80 80 79 79 78 79 80 81 81 82
100 99 99 99 101 104 105 104 105 107 107 106 106 107 107 105 103 101 101 99 97 95 94 94 93 91 89 89 88 88 88 88 88 88 89 89 89 89 88 87 85 84 84 83 83 82 82 83 84 84 85 85 84 84 84 84 83 82 82 82 82 81 80 80 81 82 82 82 83 83 82 81 81 81 81 80 80 80 79 78 78 78 79 79 79 80
98 97 97 100 103 104 103 104 106 108 107 104 103 104 103 101 99 98 98 98 97 96 95 94 93 92 90 89 89 89 89 89 89 89 88 87 87 86 85 85 84 84 83 82 82 81 81 82 82 83 83 82 82 82 82 81 80 79 79 79 79 77 77 78 79 80 80 80 81 80 80 80 79 79 79 78 78 78 78 77 76 76 77 77 77 77
96 96 98 103 105 103 102 104 108 109 106 101 100 100 99 97 96 96 98 98 97 96 95 94 93 92 90 89 88 89 89 90 89 89 88 87 86 84 84 83 83 83 82 82 81 81 80 80 80 79 79 78 78 78 78 78 77 76 77 77 75 74 74 75 76 77 78 78 78 78 77 77 77 76 76 75 74 75 75 76 75 73 74 75 76 75
95 96 100 105 106 103 101 103 107 108 104 98 95 96 96 95 95 96 96 96 95 95 94 93 92 92 90 89 89 89 90 90 89 88 88 86 85 83 83 82 82 82 81 81 80 79 78 77 77 76 75 75 75 76 76 75 74 74 74 74 73 72 72 72 73 74 75 75 75 74 74 73 73 73 72 71 71 70 71 73 74 73 71 71 72 73
Wind_Direction
268 268 268 268 268 270 270 269 268 267 265 264 263 263 263 262 263 265 265 266 265 265 266 267 268 268 269 271 271 272 274 275 276 277 279 280 281 281 282 282 281 280 280 281 281 282 281 280 279 279 278 277 277 277 276 275 275 275 276 277 277 278 278 278 278 277 276 276 276 275 275 274 274 274 273 274 274 274 274 274 273 272 271 270 270 270
270 271 270 269 269 270 270 270 270 269 269 268 267 266 265 265 264 265 266 266 266 266 266 266 267 268 268 269 270 271 273 274 276 277 278 279 280 281 281 281 281 279 278 278 279 280 280 280 280 279 278 277 277 276 276 275 275 274 275 275 275 275 275 276 277 277 276 276 276 275 275 275 274 274 273 273 273 273 273 273 273 273 272 272 271 270
272 274 273 272 271 271 271 272 271 270 270 270 270 270 269 268 267 267 268 268 268 268 267 267 268 269 270 270 269 269 271 273 275 277 277 278 279 280 280 280 279 279 278 277 277 277 277 278 278 278 277 277 277 276 276 276 276 276 276 275 275 274 274 274 274 275 275 275 276 276 276 276 275 274 273 273 272 272 272 272 272 271 272 272 272 271
274 274 274 274 274 274 275 275 275 274 274 273 272 272 272 271 270 270 270 271 271 271 270 270 271 272 273 274 273 272 272 274 276 278 279 280 281 282 282 281 279 278 277 277 276 276 276 276 276 276 276 276 276 276 276 276 276 277 277 276 276 276 275 274 273 273 273 274 274 275 276 276 276 275 274 273 272 272 271 271 270 270 270 270 271 271
274 273 274 275 276 277 277 278 278 278 278 278 277 276 275 275 274 272 271 272 273 273 273 273 273 274 275 277 277 275 276 277 278 279 281 282 282 283 282 281 280 278 277 276 275 275 276 276 276 276 276 276 275 275 275 275 275 275 275 275 275 275 275 275 275 274 273 273 274 274 275 275 275 275 274 274 273 272 271 270 270 269 269 268 268 268
273 274 275 276 277 278 278 279 280 281 283 283 283 281 280 280 279 278 276 275 275 275 275 275 274 274 275 278 278 278 279 280 281 282 282 282 281 281 281 280 280 280 279 277 275 274 274 274 275 275 275 275 275 275 275 275 275 274 274 273 274 274 275 275 275 275 274 274 273 273 273 273 274 273 273 273 273 273 272 271 270 269 268 268 267 266
272 274 276 278 279 279 279 279 280 281 282 283 284 284 284 284 283 283 282 280 278 276 275 276 275 273 275 278 279 279 280 281 282 282 283 282 281 280 279 280 280 281 280 279 278 277 275 274 273 273 273 273 273 274 274 274 273 273 273 273 273 273 274 274 274 274 274 274 273 273 273 272 272 272 272 271 271 272 272 271 270 269 268 267 266 266
273 274 276 278 280 281 281 281 281 281 281 281 282 282 283 283 283 282 281 279 276 275 275 276 274 271 271 275 277 279 281 281 281 281 281 281 280 278 278 278 279 279 279 279 278 277 277 276 275 274 273 272 272 272 273 272 272 271 271 271 271 272 272 272 273 272 272 272 272 273 272 272 272 271 271 270 270 270 270 270 270 270 269 268 267 266
275 276 277 278 279 280 281 282 282 282 282 281 280 280 280 280 280 279 278 276 275 274 274 275 275 274 273 274 276 277 279 281 282 282 281 280 279 278 278 279 280 280 280 280 280 278 276 275 275 274 273 273 272 272 272 273 272 271 271 270 270 270 270 271 271 271 271 270 271 271 271 271 271 271 270 270 269 269 268 268 268 268 268 268 267 266
276 277 277 277 278 279 280 280 280 281 281 280 279 279 279 278 278 278 277 277 277 277 277 276 277 278 278 278 279 279 280 283 285 285 283 282 281 280 280 280 280 281 282 282 282 280 278 276 274 273 272 272 272 271 270 271 271 271 271 271 271 271 270 270 271 271 270 270 270 270 270 270 269 269 268 268 268 268 267 266 266 266 266 267 267 266
277 277 277 278 279 280 281 281 282 282 282 282 282 282 283 282 281 281 281 281 280 279 279 279 279 280 280 282 283 282 283 285 288 289 288 287 287 287 286 283 281 281 281 281 282 282 280 278 276 274 272 271 270 270 268 267 268 269 270 270 271 271 271 271 271 270 270 269 269 269 269 269 268 268 267 266 266 266 266 266 265 265 265 265 265 266
280 280 280 281 282 284 285 285 286 287 287 287 287 287 288 288 288 288 287 287 287 286 285 285 285 284 285 288 288 287 288 289 291 292 292 291 290 290 288 287 284 282 282 282 282 282 282 281 279 277 275 272 270 269 268 266 265 266 267 268 269 269 270 270 270 269 269 268 268 267 267 268 268 267 266 266 265 265 265 265 265 265 264 264 264 264
284 284 285 285 286 287 288 289 290 290 291 292 292 292 292 293 293 292 292 292 292 293 293 292 292 291 291 293 293 294 295 295 296 296 295 294 292 291 290 289 287 284 283 282 282 282 283 283 282 280 279 276 273 271 269 266 265 264 264 265 266 267 268 269 269 268 268 267 266 266 266 266 266 266 265 265 265 265 264 264 264 264 264 264 263 263
284 285 287 288 289 289 290 290 291 293 294 294 294 295 295 296 296 295 296 296 297 297 297 298 298 297 297 296 296 297 298 298 298 298 297 296 294 293 292 291 289 287 285 284 283 283 283 283 282 281 280 279 277 274 271 268 267 266 265 264 264 265 266 267 268 268 268 267 267 266 265 265 265 265 264 264 264 264 264 264 263 263 262 263 263 263
283 285 287 288 289 291 291 292 293 294 295 295 295 296 297 298 298 298 298 299 300 299 299 300 300 299 299 298 298 299 299 298 298 297 296 295 294 293 292 291 290 288 287 286 284 284 283 283 282 281 280 279 278 276 274 272 270 268 268 267 266 265 264 265 265 266 267 267 267 266 266 266 265 265 265 264 264 263 263 262 262 262 262 262 261 261
284 285 287 289 291 292 293 294 294 294 294 295 296 297 297 298 299 300 301 301 300 300 300 301 301 300 300 299 299 300 299 298 297 296 294 293 293 292 292 290 289 287 286 285 284 284 283 282 281 280 279 278 277 276 275 274 273 271 270 269 268 267 266 265 265 265 265 265 266 266 265 265 265 264 264 264 264 264 263 263 262 262 261 261 260 260
284 285 286 289 291 293 294 294 294 295 295 295 296 296 297 299 300 301 300 300 300 299 300 300 300 299 299 299 300 299 298 297 295 294 293 293 292 291 290 289 287 286 285 284 284 283 282 281 280 279 278 277 277 276 275 275 274 273 272 271 270 269 268 267 266 266 265 265 264 264 264 264 264 263 262 262 262 262 263 263 263 263 262 262 261 260
286 286 287 288 291 293 294 294 295 296 296 296 297 298 298 299 300 299 298 298 298 298 299 299 298 298 298 298 298 298 296 295 295 294 293 292 291 290 289 288 286 285 284 283 283 282 281 281 280 279 277 276 276 275 275 274 274 273 272 271 270 269 268 267 266 266 265 265 264 263 263 262 262 262 262 261 261 260 261 261 261 262 262 262 262 261
289 289 289 290 292 293 294 295 296 296 297 298 299 299 299 298 297 296 296 296 297 298 298 298 298 298 298 298 298 297 296 295 294 293 292 291 290 289 288 287 286 285 284 283 282 281 280 279 279 278 277 276 275 275 274 273 273 272 272 271 270 269 268 267 266 266 265 265 264 264 263 262 261 261 261 261 260 260 259 259 260 260 260 261 261 261
291 291 292 293 294 295 296 297 296 297 298 299 298 297 296 295 295 294 295 296 297 298 298 298 298 298 297 297 297 297 295 294 293 292 290 289 288 287 286 286 285 284 283 282 281 280 280 279 278 277 276 276 275 274 273 273 272 271 271 270 269 269 268 267 266 266 265 264 264 263 263 262 261 260 260 259 259 259 259 259 259 259 259 259 260 260
293 294 295 295 296 297 297 297 296 296 297 296 295 294 294 293 293 294 295 296 297 297 297 297 297 297 297 297 297 296 294 293 291 290 289 288 287 286 285 284 284 283 282 282 281 280 279 278 278 277 276 275 274 273 273 272 272 271 270 270 269 269 268 267 266 266 265 264 264 263 263 262 261 260 259 259 258 258 258 258 258 258 258 259 259 259
295 295 296 297 297 297 297 296 296 295 294 294 293 293 292 292 293 294 295 296 296 296 297 297 297 297 297 297 296 295 293 292 291 289 288 287 286 286 285 284 283 283 282 281 281 280 279 278 277 276 275 275 274 274 273 272 272 271 271 270 269 269 268 268 267 267 266 265 264 264 263 263 262 261 260 259 258 257 257 257 257 257 258 258 258 259
296 295 296 296 296 296 295 294 294 293 292 291 291 291 291 292 293 294 294 295 295 296 296 296 296 297 298 297 296 294 293 291 290 289 288 288 287 286 285 284 284 283 282 281 281 280 279 278 277 276 276 275 274 274 274 274 273 273 272 271 270 269 268 268 267 267 266 266 265 265 264 263 263 262 261 260 259 258 258 257 257 257 256 257 257 257
296 295 295 295 295 295 293 292 292 291 290 289 290 291 291 292 293 293 294 295 295 296 296 295 295 297 297 296 294 293 292 291 290 290 289 289 288 287 286 285 284 283 282 282 281 280 279 278 278 277 277 276 275 275 274 274 274 274 273 273 272 271 270 269 268 267 267 266 266 265 265 264 264 263 263 262 261 260 260 259 258 258 257 257 256 256
294 294 294 294 294 293 292 291 290 290 289 289 290 291 292 293 293 294 295 295 295 296 295 295 295 297 296 294 293 293 292 291 291 291 290 289 288 287 286 286 285 284 283 282 282 281 280 279 279 278 277 276 276 275 274 274 273 273 273 273 273 272 271 270 269 268 267 267 266 266 265 265 265 264 264 263 263 262 261 261 260 260 259 258 258 257
292 293 293 292 292 292 291 290 289 289 289 289 290 291 292 293 294 294 295 295 295 295 295 295 296 296 294 294 294 293 292 292 291 291 290 289 288 288 287 287 286 285 284 284 283 282 281 280 280 279 278 277 276 275 275 274 273 273 272 272 272 271 271 271 270 270 269 268 267 267 266 266 265 265 265 265 264 264 263 262 262 261 261 260 260 259
291 291 291 291 290 290 290 289 289 289 289 290 291 291 292 293 294 295 295 295 295 294 295 295 296 295 294 295 295 293 293 292 291 290 289 289 289 289 288 288 287 286 285 285 284 283 282 282 281 280 279 278 277 277 276 275 274 273 272 271 271 270 270 270 270 270 270 269 269 268 267 267 266 266 265 265 265 264 264 264 263 263 262 261 261 260
290 290 290 290 289 290 290 289 289 289 290 290 291 292 292 293 294 295 295 295 294 294 294 295 295 294 294 295 294 293 292 291 290 290 290 290 289 289 288 288 287 287 286 286 285 284 284 283 282 281 280 280 279 278 277 276 275 274 273 272 272 271 271 270 270 270 270 269 269 269 268 268 267 266 266 265 265 265 264 264 264 263 263 262 262 262
289 290 290 289 289 290 290 289 289 290 290 291 292 292 293 294 295 295 294 293 293 294 294 295 294 293 293 293 292 291 291 291 291 290 290 290 289 288 288 287 287 286 286 285 285 285 284 284 283 282 281 280 279 278 278 277 276 276 275 274 274 273 272 271 270 269 269 268 268 267 267 267 267 266 266 265 265 265 264 264 264 264 263 263 263 262
289 289 289 289 289 290 290 290 290 290 290 291 292 293 294 295 294 293 292 293 293 294 294 294 292 292 292 292 291 290 290 290 290 290 290 290 289 289 288 288 287 286 286 286 286 285 285 284 283 282 281 281 280 279 279 278 278 277 277 276 275 274 273 272 271 270 269 268 267 267 266 266 266 266 266 266 266 265 265 265 265 265 265 264 264 264
288 289 289 289 289 289 290 290 290 290 291 291 293 295 295 294 292 292 292 293 293 293 293 292 291 292 292 291 290 290 290 290 290 289 289 289 288 288 287 287 287 286 286 286 286 285 284 283 283 282 282 281 281 281 280 280 279 278 278 277 276 275 275 274 273 273 272 271 269 268 268 267 266 266 266 266 266 266 266 266 266 266 265 265 265 265
288 288 289 289 289 290 290 290 290 290 291 292 295 295 294 292 292 293 293 293 292 292 291 291 291 292 291 290 290 290 290 290 289 289 289 288 288 287 287 287 287 286 286 285 284 283 283 283 283 282 282 281 281 281 280 280 279 279 278 278 277 277 276 275 275 274 274 273 272 271 270 269 268 267 267 266 266 265 265 265 265 265 265 265 265 266
288 288 289 289 289 289 290 289 289 290 291 293 295 294 292 292 293 293 292 292 292 291 291 291 291 290 290 290 290 290 290 290 290 289 289 289 289 289 289 288 288 287 286 286 285 284 284 284 283 282 282 282 281 281 280 280 279 279 279 279 279 278 277 277 276 275 274 274 273 272 272 271 270 270 269 269 268 267 267 266 266 265 265 265 265 265
288 288 288 289 289 289 289 289 289 290 292 294 294 292 292 293 292 292 291 291 291 291 291 290 290 290 290 290 290 289 290 290 290 290 290 290 289 289 289 288 288 287 287 286 286 285 285 284 284 283 283 282 282 282 281 281 281 281 281 281 280 280 279 279 278 277 276 275 274 274 273 272 272 271 271 270 270 269 269 268 267 267 266 266 265 265
288 288 288 288 289 289 289 290 290 291 293 293 292 292 292 292 291 291 291 291 291 291 290 290 290 290 289 289 289 289 289 290 290 290 289 289 288 288 288 287 287 286 286 285 285 285 284 284 283 283 282 282 282 282 283 283 283 283 283 282 281 281 280 280 279 279 278 277 276 276 275 274 273 272 272 271 271 270 269 269 268 268 267 267 267 266
288 288 288 288 289 289 289 290 290 291 292 292 292 292 291 290 290 290 290 290 290 290 290 289 289 289 288 289 289 289 290 290 290 289 289 288 288 288 288 287 286 286 286 286 286 285 284 284 283 283 283 283 284 284 284 284 284 283 283 282 281 281 280 279 279 278 278 277 277 276 276 275 275 274 273 272 271 270 269 269 269 268 268 268 268 267
287 288 288 288 289 289 289 290 290 291 291 291 292 291 289 289 290 289 289 288 289 289 289 288 288 288 288 289 289 289 290 290 290 290 289 289 289 289 288 287 287 287 287 287 286 285 284 284 284 284 285 285 285 286 285 285 284 284 283 282 281 280 280 279 278 278 277 277 276 276 276 276 276 275 274 273 272 271 271 270 270 269 269 269 268 268
288 288 288 288 289 289 289 290 290 290 291 291 290 289 289 290 289 288 288 288 289 289 288 287 287 288 288 289 289 289 289 290 290 290 289 289 289 288 287 287 287 287 287 286 286 285 285 285 285 286 286 286 286 286 285 285 284 284 283 282 281 280 280 279 279 278 277 277 277 277 277 276 276 275 274 274 273 273 273 272 272 271 270 269 268 267
287 288 288 288 288 289 289 290 290 290 290 290 290 290 290 289 288 288 288 288 289 288 286 287 288 288 289 289 289 289 290 290 290 290 289 288 288 287 287 287 287 287 286 286 286 286 286 287 287 287 288 287 287 286 285 285 284 283 282 282 281 280 280 279 279 278 278 277 277 277 276 276 276 275 275 275 275 275 274 274 273 272 271 270 269 268
287 287 287 288 288 289 289 289 289 290 290 290 290 290 289 288 288 288 288 288 287 286 286 288 288 289 289 289 289 290 290 291 290 289 288 287 287 287 287 287 286 286 286 286 287 287 288 288 288 288 287 287 286 286 285 285 284 283 282 282 281 281 280 279 279 278 278 278 277 277 276 276 275 275 275 275 275 275 274 274 273 272 272 272 271 270
286 286 286 287 287 288 289 288 288 289 290 291 290 289 288 288 288 288 288 287 287 287 288 288 288 289 289 289 290 291 291 290 290 289 288 288 288 288 287 287 286 286 287 288 288 288 288 288 288 287 287 286 285 285 284 284 284 283 283 282 282 281 281 280 280 279 279 278 277 277 276 276 275 275 275 275 274 274 274 273 273 272 272 272 272 272
285 285 286 287 287 288 287 288 288 289 289 289 288 287 287 287 287 287 287 287 287 288 289 289 289 289 290 291 291 291 291 290 289 289 288 288 288 287 287 287 287 288 288 288 288 287 287 287 287 287 286 285 285 284 284 284 283 283 283 283 282 282 282 281 281 280 280 279 278 277 277 276 276 275 275 275 274 274 273 273 273 273 272 272 272 272
285 285 286 287 287 287 287 288 288 288 287 286 286 286 286 286 286 287 287 287 288 289 289 289 290 290 291 291 291 290 290 290 289 288 288 287 286 286 286 286 287 287 287 287 287 287 287 287 287 286 286 285 285 285 284 284 284 284 283 283 283 283 282 282 282 281 281 280 279 279 278 277 277 276 276 275 275 274 274 274 274 274 273 273 272 272
285 285 286 286 287 287 287 288 287 286 285 285 285 285 285 285 286 286 286 287 288 289 289 290 291 291 291 290 291 291 291 290 289 288 287 287 286 286 287 287 287 287 287 287 287 287 287 287 287 286 286 286 286 285 285 285 285 284 284 284 283 283 283 282 282 282 281 280 280 279 279 278 277 277 276 276 276 275 275 275 275 275 274 274 273 272
284 285 286 286 287 287 286 286 285 284 284 284 284 284 285 285 285 285 286 287 289 290 290 290 290 290 290 290 290 289 289 288 288 288 288 288 288 288 288 288 288 288 288 288 288 288 288 288 288 287 287 287 286 286 286 285 285 284 284 284 284 283 283 283 283 282 281 281 280 280 279 278 278 277 277 277 276 276 276 275 275 275 275 274 274 273
284 285 285 286 286 285 285 284 283 283 284 284 284 284 284 284 285 286 287 288 289 290 290 290 290 289 288 288 288 287 287 287 287 287 287 288 288 288 288 288 288 288 289 289 289 289 289 289 288 288 287 287 287 287 286 285 285 285 285 284 284 283 283 283 283 282 282 281 281 280 280 279 279 279 279 279 278 277 277 276 276 276 276 275 274 274
284 284 284 285 285 284 283 282 283 283 284 284 284 284 285 286 287 288 289 290 291 291 291 290 289 289 289 289 288 287 287 287 286 286 286 286 286 287 288 288 289 289 290 290 290 289 289 289 288 288 287 287 287 287 286 286 285 285 285 284 284 284 284 284 283 283 282 282 282 281 281 282 282 282 281 281 280 280 279 278 277 277 277 276 275 275
283 283 284 285 283 282 282 282 282 282 282 282 283 284 286 287 289 290 291 292 292 291 291 290 290 290 290 290 289 289 289 288 288 287 287 287 287 288 289 289 290 290 290 290 289 289 289 288 288 287 287 287 287 287 286 286 286 285 285 285 284 284 285 284 283 283 282 282 282 282 282 282 282 282 282 282 282 281 281 280 279 278 277 276 276 276
283 283 284 283 281 281 282 282 281 281 281 282 283 284 286 288 290 291 291 291 290 290 291 291 291 291 291 291 291 291 290 290 289 289 288 288 289 289 290 291 291 291 291 290 290 290 289 289 288 288 288 288 288 287 286 286 286 286 285 285 285 285 285 284 284 283 283 282 282 282 283 283 283 283 283 282 282 282 282 281 280 279 279 278 277 277
283 283 283 281 280 280 280 280 280 280 281 282 284 285 287 289 290 289 289 290 290 291 292 292 292 292 292 292 292 291 291 290 290 290 290 290 291 291 292 292 292 292 292 291 291 290 290 289 289 288 288 288 287 286 286 286 286 285 285 285 285 285 285 284 284 284 283 283 283 283 283 283 283 283 283 283 283 283 282 282 280 279 279 279 279 278
283 282 281 279 279 280 280 279 279 280 282 284 285 287 287 288 288 288 288 289 290 291 291 291 291 292 292 292 291 291 290 290 291 291 291 292 292 292 292 291 291 291 291 291 291 290 290 289 288 288 287 287 286 286 285 285 285 285 285 285 285 285 284 284 284 284 283 283 283 283 283 283 283 283 283 283 283 282 282 282 282 280 279 278 278 279
Height
10740 10741 10742 10738 10737 10738 10737 10736 10738 10739 10739 10739 10739 10739 10739 10739 10739 10736 10736 10736 10736 10739 10739 10737 10738 10738 10737 10735 10732 10731 10730 10728 10728 10727 10726 10725 10724 10723 10722 10721 10720 10718 10716 10713 10711 10710 10710 10711 10711 10712 10711 10711 10710 10709 10709 10708 10707 10707 10706 10706 10706 10705 10705 10705 10704 10704 10703 10703 10703 10702 10702 10701 10700 10699 10698 10697 10697 10696 10695 10695 10695 10694 10695 10696 10697 10698
10736 10737 10735 10733 10734 10733 10731 10731 10733 10734 10733 10734 10734 10735 10735 10734 10734 10733 10732 10732 10731 10733 10734 10732 10733 10733 10732 10729 10727 10727 10726 10724 10723 10723 10723 10721 10718 10718 10717 10716 10714 10712 10711 10709 10707 10704 10703 10703 10704 10704 10703 10703 10703 10702 10701 10700 10700 10699 10699 10699 10699 10698 10697 10697 10696 10696 10696 10695 10695 10695 10694 10694 10693 10692 10691 10691 10690 10690 10689 10688 10687 10686 10686 10687 10689 10689
10732 10731 10727 10727 10729 10728 10726 10726 10727 10728 10728 10729 10729 10730 10730 10729 10729 10729 10728 10727 10727 10728 10728 10728 10729 10728 10726 10723 10721 10722 10722 10720 10717 10717 10717 10716 10713 10712 10711 10709 10707 10705 10704 10703 10701 10700 10698 10697 10697 10696 10696 10695 10695 10694 10693 10692 10692 10691 10691 10691 10691 10691 10690 10689 10689 10688 10688 10687 10687 10686 10686 10686 10686 10685 10684 10684 10683 10683 10682 10681 10680 10679 10678 10678 10679 10680
10728 10724 10720 10721 10722 10723 10722 10720 10719 10721 10722 10724 10723 10724 10724 10722 10723 10725 10723 10722 10722 10722 10723 10723 10724 10724 10720 10716 10713 10715 10717 10715 10712 10711 10710 10709 10706 10705 10704 10701 10699 10698 10696 10695 10694 10693 10692 10691 10690 10689 10689 10688 10687 10686 10685 10684 10684 10683 10683 10682 10682 10682 10682 10681 10681 10681 10680 10679 10679 10678 10677 10677 10677 10676 10676 10675 10675 10675 10674 10674 10672 10671 10670 10670 10670 10670
10721 10716 10714 10715 10716 10717 10717 10714 10712 10714 10716 10715 10715 10716 10716 10714 10715 10717 10717 10717 10716 10716 10716 10716 10718 10719 10716 10710 10705 10706 10711 10709 10706 10705 10704 10702 10700 10698 10696 10692 10690 10689 10688 10687 10686 10685 10684 10682 10682 10681 10681 10680 10679 10678 10677 10676 10675 10675 10674 10674 10673 10673 10673 10673 10673 10672 10672 10671 10671 10670 10669 10668 10667 10667 10666 10666 10666 10666 10666 10665 10664 10664 10663 10662 10661 10661
10713 10708 10707 10708 10709 10711 10711 10709 10706 10708 10709 10707 10705 10706 10707 10706 10706 10707 10708 10709 10710 10709 10708 10708 10710 10712 10710 10705 10698 10698 10704 10701 10697 10698 10696 10693 10692 10690 10687 10683 10681 10681 10679 10679 10678 10677 10676 10674 10673 10672 10672 10671 10670 10669 10668 10668 10667 10666 10665 10665 10664 10664 10664 10663 10663 10663 10663 10663 10662 10661 10660 10659 10658 10657 10656 10656 10655 10655 10655 10655 10655 10655 10654 10654 10653 10652
10708 10703 10701 10701 10701 10702 10703 10701 10700 10702 10703 10700 10697 10696 10697 10697 10697 10697 10698 10699 10701 10702 10701 10699 10699 10703 10706 10701 10692 10692 10695 10692 10688 10690 10688 10685 10684 10681 10678 10675 10673 10672 10670 10669 10669 10668 10667 10666 10664 10664 10663 10662 10661 10660 10659 10659 10658 10656 10656 10655 10655 10654 10654 10654 10654 10654 10653 10653 10652 10652 10651 10650 10648 10647 10646 10645 10645 10645 10645 10645 10645 10645 10645 10645 10644 10643
10700 10699 10697 10696 10694 10693 10692 10692 10692 10693 10694 10693 10690 10688 10688 10688 10688 10689 10689 10690 10692 10693 10695 10691 10684 10692 10701 10695 10687 10687 10688 10683 10680 10681 10680 10675 10673 10670 10668 10668 10666 10663 10661 10658 10658 10659 10657 10656 10655 10654 10653 10653 10652 10651 10649 10648 10648 10647 10646 10646 10645 10645 10644 10644 10643 10643 10643 10643 10642 10641 10641 10640 10639 10638 10636 10635 10634 10634 10634 10633 10633 10634 10634 10634 10634 10634
10692 10692 10691 10690 10688 10686 10684 10683 10683 10683 10684 10684 10682 10680 10680 10679 10679 10679 10680 10681 10682 10685 10688 10681 10672 10680 10692 10688 10682 10682 10680 10674 10670 10671 10670 10666 10662 10661 10659 10659 10657 10653 10651 10647 10645 10646 10646 10645 10644 10644 10643 10642 10642 10643 10640 10638 10636 10636 10636 10635 10634 10633 10633 10633 10632 10632 10632 10632 10631 10630 10630 10629 10628 10627 10626 10625 10624 10623 10623 10622 10622 10622 10622 10622 10623 10623
10685 10685 10683 10683 10681 10679 10677 10675 10674 10674 10673 10673 10672 10672 10671 10670 10670 10669 10671 10671 10671 10677 10678 10670 10664 10669 10679 10679 10675 10673 10670 10665 10660 10657 10658 10655 10652 10651 10649 10648 10646 10642 10640 10636 10633 10631 10632 10632 10632 10633 10633 10630 10630 10632 10632 10628 10625 10624 10623 10622 10622 10621 10620 10620 10620 10620 10620 10620 10619 10619 10618 10617 10616 10616 10615 10614 10614 10613 10612 10611 10610 10610 10609 10610 10610 10611
10677 10676 10675 10675 10673 10670 10668 10666 10665 10663 10663 10663 10662 10662 10660 10659 10659 10658 10660 10660 10660 10667 10666 10659 10657 10659 10664 10668 10663 10661 10660 10656 10650 10645 10644 10643 10641 10639 10635 10633 10634 10632 10629 10625 10622 10619 10617 10617 10617 10618 10620 10620 10619 10620 10620 10618 10615 10613 10611 10609 10608 10607 10606 10606 10606 10607 10607 10607 10607 10606 10606 10605 10604 10603 10603 10602 10602 10601 10600 10600 10599 10598 10598 10597 10597 10598
10668 10667 10667 10667 10664 10662 10659 10656 10655 10652 10652 10652 10651 10651 10650 10647 10647 10647 10648 10647 10648 10654 10653 10650 10649 10648 10652 10654 10648 10646 10647 10645 10640 10633 10629 10629 10628 10625 10621 10618 10618 10618 10617 10613 10610 10606 10603 10602 10603 10603 10604 10605 10606 10607 10607 10606 10604 10602 10599 10597 10595 10593 10592 10591 10591 10591 10592 10592 10592 10592 10592 10591 10590 10590 10590 10589 10589 10588 10588 10588 10587 10586 10586 10585 10585 10585
10659 10658 10657 10657 10655 10653 10650 10647 10645 10643 10642 10641 10639 10639 10638 10637 10634 10635 10637 10635 10635 10640 10640 10639 10639 10637 10640 10640 10634 10632 10633 10631 10628 10621 10617 10615 10612 10609 10606 10604 10603 10602 10602 10600 10597 10593 10590 10588 10588 10587 10587 10587 10588 10590 10591 10591 10589 10588 10586 10584 10582 10580 10578 10577 10576 10575 10575 10575 10576 10576 10577 10576 10576 10576 10575 10575 10575 10574 10574 10574 10574 10574 10573 10573 10572 10572
10652 10651 10648 10645 10644 10643 10640 10637 10635 10634 10632 10629 10628 10626 10626 10624 10620 10622 10625 10623 10623 10626 10626 10628 10627 10626 10628 10626 10621 10620 10620 10618 10613 10608 10605 10601 10597 10594 10591 10589 10587 10586 10586 10585 10583 10579 10576 10573 10572 10572 10571 10570 10570 10570 10571 10573 10572 10571 10570 10569 10568 10566 10564 10562 10561 10560 10559 10559 10559 10559 10560 10560 10560 10560 10560 10560 10560 10559 10560 10560 10560 10560 10560 10559 10559 10559
10642 10642 10639 10634 10633 10632 10628 10625 10625 10624 10621 10618 10617 10615 10614 10611 10605 10607 10612 10610 10608 10609 10613 10617 10614 10612 10614 10612 10610 10608 10606 10604 10598 10593 10589 10584 10581 10578 10576 10574 10572 10570 10569 10568 10567 10565 10562 10559 10557 10555 10554 10554 10553 10551 10551 10553 10554 10553 10551 10551 10551 10549 10548 10547 10546 10545 10544 10543 10542 10542 10542 10543 10543 10543 10543 10543 10543 10544 10543 10544 10544 10545 10545 10545 10544 10544
10633 10633 10630 10624 10623 10622 10617 10614 10614 10613 10610 10607 10606 10603 10601 10598 10593 10592 10595 10595 10592 10591 10601 10608 10602 10598 10599 10598 10597 10594 10590 10588 10583 10579 10574 10569 10566 10563 10560 10559 10557 10554 10552 10550 10549 10549 10547 10545 10542 10540 10538 10536 10535 10534 10533 10533 10534 10534 10533 10532 10531 10530 10530 10530 10529 10529 10528 10527 10526 10525 10525 10525 10525 10526 10526 10527 10526 10527 10526 10526 10527 10528 10529 10529 10529 10529
10622 10624 10622 10617 10613 10612 10609 10604 10601 10601 10599 10595 10595 10593 10588 10586 10584 10579 10577 10580 10577 10573 10584 10594 10590 10587 10584 10582 10584 10579 10572 10571 10566 10562 10558 10553 10550 10547 10545 10543 10540 10538 10536 10534 10532 10530 10529 10527 10525 10523 10521 10519 10517 10515 10515 10515 10514 10514 10514 10513 10512 10511 10511 10511 10510 10510 10509 10509 10508 10507 10507 10506 10507 10507 10508 10509 10509 10509 10509 10509 10509 10509 10510 10511 10512 10512
10609 10612 10612 10609 10604 10602 10600 10594 10588 10588 10587 10582 10581 10580 10575 10573 10573 10569 10563 10565 10566 10560 10566 10575 10576 10576 10572 10569 10570 10564 10556 10553 10549 10544 10540 10536 10532 10529 10526 10524 10522 10521 10519 10518 10516 10513 10511 10508 10506 10505 10503 10502 10500 10498 10497 10496 10495 10494 10493 10492 10491 10491 10491 10491 10491 10490 10489 10489 10488 10487 10487 10487 10488 10488 10489 10489 10490 10490 10491 10491 10491 10491 10492 10493 10494 10494
10593 10597 10600 10600 10595 10591 10590 10585 10577 10573 10572 10570 10568 10566 10564 10561 10560 10558 10553 10553 10553 10548 10549 10555 10558 10561 10560 10555 10552 10546 10539 10534 10530 10526 10522 10518 10515 10511 10507 10505 10502 10501 10501 10499 10498 10497 10494 10491 10488 10486 10484 10483 10481 10480 10478 10476 10474 10473 10472 10472 10471 10470 10470 10470 10470 10470 10469 10468 10467 10467 10467 10467 10468 10469 10469 10470 10470 10470 10471 10471 10472 10473 10473 10474 10475 10475
10579 10580 10586 10588 10584 10578 10577 10573 10565 10559 10558 10558 10556 10554 10553 10551 10549 10547 10544 10542 10538 10533 10532 10534 10537 10544 10546 10542 10536 10529 10521 10516 10512 10509 10505 10501 10498 10494 10491 10488 10485 10483 10481 10480 10479 10478 10476 10474 10472 10469 10466 10464 10462 10460 10458 10455 10453 10452 10452 10451 10450 10449 10448 10449 10449 10449 10448 10447 10447 10446 10446 10446 10447 10448 10449 10450 10450 10450 10450 10451 10452 10453 10454 10454 10455 10456
10566 10564 10569 10574 10572 10567 10563 10557 10553 10549 10546 10546 10545 10543 10541 10539 10536 10534 10534 10533 10526 10517 10515 10514 10516 10523 10529 10528 10521 10512 10505 10499 10494 10491 10487 10484 10480 10477 10474 10472 10469 10466 10463 10461 10460 10458 10457 10455 10454 10451 10448 10445 10443 10441 10439 10436 10433 10432 10432 10432 10430 10428 10427 10427 10428 10428 10427 10426 10426 10425 10425 10425 10425 10426 10427 10429 10430 10430 10429 10430 10431 10433 10433 10433 10434 10435
10554 10550 10552 10558 10560 10558 10551 10543 10539 10539 10536 10533 10532 10532 10530 10527 10525 10521 10520 10522 10516 10505 10501 10498 10493 10499 10510 10510 10501 10492 10487 10481 10475 10471 10468 10466 10463 10461 10458 10455 10452 10450 10447 10444 10442 10439 10438 10436 10434 10432 10430 10427 10425 10422 10419 10417 10415 10413 10413 10413 10412 10410 10409 10407 10407 10406 10406 10405 10405 10405 10404 10403 10404 10404 10405 10406 10407 10408 10408 10409 10410 10412 10413 10413 10413 10414
10541 10536 10537 10542 10546 10549 10544 10534 10527 10526 10524 10521 10519 10523 10522 10517 10514 10509 10503 10505 10502 10494 10491 10483 10474 10479 10490 10488 10477 10470 10467 10461 10455 10451 10449 10447 10446 10444 10441 10438 10435 10433 10430 10427 10425 10422 10419 10417 10415 10413 10412 10410 10408 10405 10402 10400 10397 10395 10394 10393 10393 10392 10390 10389 10388 10387 10386 10385 10384 10384 10383 10382 10382 10382 10383 10384 10385 10387 10387 10387 10388 10390 10392 10392 10392 10393
10526 10522 10523 10527 10532 10537 10536 10528 10519 10513 10511 10507 10505 10510 10511 10507 10504 10497 10490 10487 10482 10479 10479 10467 10458 10466 10473 10466 10456 10451 10446 10441 10436 10433 10431 10429 10427 10425 10423 10421 10419 10415 10413 10410 10407 10405 10402 10399 10397 10395 10394 10393 10391 10389 10386 10383 10381 10378 10375 10374 10372 10371 10370 10369 10368 10368 10367 10365 10364 10363 10363 10362 10361 10361 10362 10362 10363 10365 10365 10366 10367 10368 10369 10370 10371 10371
10512 10510 10511 10513 10515 10521 10525 10519 10508 10500 10498 10496 10495 10495 10494 10493 10490 10484 10478 10471 10462 10461 10461 10449 10445 10454 10452 10444 10439 10434 10427 10423 10419 10416 10415 10411 10408 10406 10404 10402 10400 10397 10395 10392 10389 10386 10384 10382 10380 10378 10376 10375 10373 10371 10369 10367 10365 10362 10359 10356 10353 10351 10349 10348 10348 10347 10347 10346 10344 10344 10343 10343 10342 10341 10341 10341 10342 10343 10343 10344 10345 10345 10346 10347 10349 10349
10500 10499 10500 10500 10498 10504 10511 10507 10496 10487 10484 10483 10486 10485 10481 10478 10475 10468 10463 10456 10445 10439 10437 10434 10433 10433 10429 10426 10423 10414 10406 10405 10404 10401 10397 10393 10391 10388 10386 10384 10382 10379 10376 10374 10370 10367 10366 10364 10362 10359 10357 10355 10353 10352 10351 10349 10348 10346 10343 10339 10336 10333 10331 10329 10328 10327 10326 10326 10325 10325 10325 10324 10323 10322 10321 10321 10321 10321 10321 10322 10323 10324 10324 10324 10326 10327
10488 10488 10490 10488 10484 10488 10493 10490 10483 10475 10469 10469 10472 10473 10471 10467 10462 10455 10446 10437 10428 10418 10415 10421 10417 10405 10407 10415 10408 10392 10384 10384 10386 10384 10380 10377 10374 10371 10368 10365 10363 10359 10356 10354 10351 10348 10347 10345 10342 10339 10337 10335 10334 10333 10332 10330 10328 10326 10324 10321 10319 10317 10316 10313 10310 10309 10307 10307 10306 10306 10305 10304 10303 10302 10302 10301 10300 10300 10299 10300 10300 10301 10302 10302 10303 10304
10475 10474 10477 10473 10469 10473 10475 10470 10465 10460 10455 10455 10457 10459 10460 10457 10450 10443 10431 10419 10410 10399 10397 10409 10403 10386 10389 10400 10392 10375 10366 10364 10367 10367 10365 10362 10357 10353 10351 10347 10344 10340 10337 10334 10332 10329 10326 10324 10321 10318 10316 10315 10314 10313 10311 10309 10307 10305 10304 10302 10301 10301 10300 10298 10296 10293 10291 10289 10288 10286 10285 10284 10283 10282 10281 10280 10279 10278 10278 10278 10278 10279 10280 10280 10280 10281
10460 10460 10463 10457 10453 10457 10456 10449 10446 10442 10439 10440 10441 10444 10448 10446 10438 10426 10413 10403 10393 10380 10380 10390 10386 10374 10377 10381 10371 10360 10354 10351 10350 10348 10347 10345 10339 10336 10334 10331 10327 10323 10320 10317 10314 10311 10308 10304 10301 10298 10296 10294 10293 10291 10290 10289 10288 10287 10286 10285 10283 10282 10281 10280 10278 10276 10274 10271 10269 10267 10265 10263 10262 10261 10260 10259 10258 10258 10257 10257 10257 10258 10259 10259 10259 10259
10446 10446 10445 10440 10437 10439 10437 10430 10425 10423 10422 10423 10426 10430 10433 10430 10421 10406 10396 10391 10380 10368 10366 10366 10359 10359 10366 10361 10348 10345 10345 10341 10335 10331 10329 10326 10321 10318 10315 10311 10308 10305 10302 10300 10297 10293 10289 10284 10281 10278 10275 10273 10272 10271 10271 10271 10270 10269 10268 10266 10264 10263 10261 10259 10258 10256 10254 10252 10250 10248 10246 10245 10243 10242 10241 10239 10238 10238 10238 10238 10238 10239 10239 10239 10239 10239
10432 10430 10427 10423 10419 10420 10421 10411 10402 10403 10404 10404 10413 10421 10418 10406 10394 10386 10382 10379 10369 10359 10354 10345 10337 10342 10348 10338 10329 10330 10330 10326 10321 10317 10314 10310 10306 10302 10297 10293 10291 10288 10286 10284 10280 10274 10269 10265 10262 10260 10257 10254 10253 10253 10253 10252 10251 10249 10248 10247 10246 10244 10242 10240 10239 10237 10235 10232 10230 10229 10228 10227 10226 10225 10224 10222 10220 10220 10220 10220 10220 10220 10219 10219 10219 10219
10417 10412 10410 10405 10399 10404 10407 10392 10382 10385 10383 10387 10404 10409 10395 10378 10370 10369 10366 10361 10353 10345 10338 10331 10325 10325 10323 10317 10315 10315 10311 10307 10304 10301 10297 10293 10288 10285 10281 10278 10274 10272 10270 10267 10262 10257 10253 10250 10247 10243 10239 10238 10237 10237 10236 10234 10233 10231 10230 10229 10228 10227 10225 10223 10221 10219 10216 10214 10211 10209 10208 10207 10207 10206 10205 10204 10203 10203 10203 10203 10203 10202 10201 10201 10201 10200
10401 10396 10394 10386 10379 10387 10391 10376 10367 10367 10366 10378 10394 10387 10367 10358 10354 10349 10345 10341 10337 10329 10322 10317 10311 10305 10301 10300 10300 10297 10293 10290 10287 10284 10279 10274 10269 10267 10264 10259 10254 10252 10251 10247 10244 10241 10238 10234 10230 10226 10223 10222 10221 10220 10218 10217 10216 10215 10214 10214 10212 10209 10207 10205 10203 10201 10199 10197 10193 10191 10189 10188 10188 10188 10187 10186 10186 10186 10187 10186 10186 10185 10184 10184 10184 10184
10387 10382 10376 10369 10362 10366 10370 10360 10350 10349 10356 10370 10375 10361 10347 10343 10335 10327 10325 10326 10322 10314 10306 10298 10291 10287 10285 10284 10282 10279 10277 10276 10273 10268 10262 10255 10251 10250 10248 10242 10237 10235 10233 10229 10226 10224 10221 10218 10213 10209 10207 10205 10203 10202 10200 10200 10200 10199 10198 10197 10194 10192 10189 10187 10185 10182 10180 10179 10176 10173 10172 10171 10171 10171 10170 10170 10169 10169 10169 10167 10167 10167 10166 10166 10167 10167
10373 10366 10359 10354 10347 10345 10347 10341 10331 10333 10347 10354 10350 10343 10334 10323 10314 10308 10308 10310 10308 10299 10289 10280 10273 10270 10269 10267 10265 10264 10263 10262 10260 10255 10247 10240 10237 10236 10233 10228 10223 10220 10217 10214 10212 10210 10206 10202 10197 10194 10192 10190 10188 10187 10186 10185 10185 10183 10181 10180 10177 10175 10172 10169 10167 10165 10162 10160 10157 10155 10153 10153 10153 10154 10153 10153 10152 10151 10150 10148 10148 10148 10147 10148 10150 10151
10354 10349 10343 10339 10332 10327 10326 10323 10317 10319 10329 10334 10330 10325 10315 10304 10299 10293 10290 10294 10293 10284 10274 10265 10257 10254 10252 10250 10251 10250 10248 10248 10246 10240 10232 10224 10221 10220 10216 10211 10207 10204 10202 10199 10197 10194 10190 10185 10181 10178 10178 10176 10175 10173 10172 10170 10168 10166 10165 10162 10160 10158 10155 10153 10151 10148 10146 10143 10140 10137 10135 10135 10136 10137 10136 10135 10134 10132 10131 10130 10131 10131 10131 10133 10134 10134
10335 10329 10325 10319 10314 10311 10308 10307 10305 10302 10308 10317 10314 10301 10290 10287 10285 10276 10269 10274 10278 10272 10261 10249 10241 10239 10239 10237 10237 10235 10233 10233 10231 10225 10215 10209 10207 10204 10199 10194 10190 10189 10187 10184 10181 10177 10172 10169 10166 10165 10164 10163 10161 10159 10156 10154 10152 10150 10148 10145 10143 10141 10139 10137 10135 10133 10130 10127 10124 10122 10120 10119 10120 10119 10118 10117 10115 10114 10114 10114 10116 10116 10115 10116 10118 10117
10317 10312 10306 10298 10295 10296 10290 10287 10288 10285 10288 10297 10292 10279 10273 10272 10266 10254 10247 10254 10263 10257 10244 10233 10228 10227 10226 10225 10224 10221 10219 10219 10219 10211 10200 10195 10194 10189 10183 10179 10176 10174 10172 10167 10163 10160 10156 10154 10153 10152 10151 10149 10147 10144 10141 10138 10136 10134 10132 10129 10127 10125 10123 10121 10119 10117 10115 10112 10110 10108 10107 10105 10103 10102 10101 10100 10098 10098 10099 10099 10100 10100 10098 10098 10100 10100
10299 10294 10289 10281 10279 10280 10273 10268 10269 10268 10270 10272 10266 10260 10258 10252 10244 10234 10230 10238 10247 10238 10225 10221 10220 10215 10212 10211 10209 10208 10206 10205 10205 10198 10186 10180 10178 10174 10170 10167 10163 10159 10155 10151 10147 10144 10142 10141 10140 10138 10137 10134 10131 10128 10125 10123 10121 10118 10116 10114 10112 10110 10108 10106 10104 10102 10100 10098 10096 10094 10092 10090 10088 10086 10086 10085 10084 10084 10084 10084 10083 10081 10080 10080 10081 10083
10283 10279 10273 10266 10265 10265 10259 10253 10250 10250 10252 10249 10241 10238 10236 10229 10224 10219 10215 10220 10224 10218 10214 10214 10209 10202 10199 10196 10194 10195 10194 10191 10189 10184 10174 10165 10162 10159 10156 10152 10149 10145 10141 10137 10135 10132 10129 10127 10126 10125 10122 10119 10116 10112 10110 10107 10105 10102 10100 10098 10097 10095 10093 10091 10089 10087 10085 10084 10081 10079 10077 10075 10074 10072 10071 10071 10072 10070 10069 10068 10066 10064 10063 10063 10064 10065
10269 10263 10257 10254 10254 10252 10245 10236 10232 10237 10240 10230 10217 10214 10214 10210 10207 10205 10201 10200 10200 10201 10204 10203 10196 10191 10187 10183 10181 10182 10180 10174 10170 10166 10159 10152 10148 10144 10139 10135 10133 10130 10128 10125 10123 10119 10116 10114 10112 10110 10107 10104 10101 10098 10095 10093 10090 10087 10085 10083 10082 10080 10078 10076 10074 10073 10071 10069 10066 10064 10063 10061 10060 10059 10057 10057 10058 10057 10054 10051 10051 10051 10050 10049 10049 10049
10251 10245 10242 10243 10242 10237 10230 10222 10218 10223 10227 10214 10197 10193 10194 10192 10190 10188 10185 10182 10182 10186 10189 10186 10182 10180 10175 10171 10169 10167 10165 10159 10153 10149 10144 10139 10134 10130 10125 10121 10119 10117 10115 10112 10109 10105 10102 10100 10097 10094 10092 10089 10086 10084 10082 10078 10075 10072 10070 10069 10067 10065 10063 10061 10059 10058 10056 10054 10051 10049 10048 10047 10045 10044 10043 10043 10043 10043 10040 10036 10036 10037 10037 10035 10035 10034
10232 10228 10228 10231 10227 10218 10214 10212 10205 10203 10207 10199 10185 10178 10177 10177 10177 10174 10169 10166 10168 10172 10173 10170 10170 10169 10163 10159 10155 10151 10150 10145 10138 10134 10130 10124 10119 10116 10112 10110 10107 10105 10103 10099 10095 10093 10089 10086 10083 10079 10075 10073 10071 10070 10068 10065 10062 10059 10056 10055 10053 10051 10048 10047 10045 10043 10041 10038 10036 10035 10033 10032 10030 10029 10029 10029 10028 10028 10027 10024 10022 10022 10022 10022 10021 10020
10215 10214 10213 10216 10214 10203 10199 10199 10189 10182 10187 10184 10172 10165 10162 10161 10163 10161 10156 10154 10155 10157 10157 10156 10157 10155 10150 10145 10140 10136 10133 10128 10121 10117 10113 10108 10104 10101 10099 10098 10095 10092 10090 10086 10082 10080 10076 10073 10070 10065 10061 10059 10057 10056 10054 10051 10049 10046 10043 10041 10039 10037 10035 10033 10031 10029 10026 10023 10022 10020 10018 10016 10014 10014 10014 10014 10014 10014 10012 10010 10009 10008 10007 10007 10007 10005
10201 10201 10198 10201 10202 10190 10183 10182 10171 10163 10170 10168 10158 10155 10150 10145 10146 10146 10144 10144 10145 10144 10144 10142 10141 10141 10136 10132 10129 10125 10119 10113 10106 10101 10096 10091 10088 10086 10084 10083 10080 10078 10076 10073 10069 10066 10063 10059 10056 10051 10047 10045 10043 10042 10040 10037 10035 10034 10030 10028 10026 10024 10022 10020 10017 10014 10011 10009 10008 10006 10003 10001 10000 9999 9999 9999 10000 10000 9998 9997 9996 9993 9992 9991 9991 9989
10188 10188 10184 10187 10189 10177 10167 10164 10152 10146 10153 10153 10144 10140 10136 10131 10132 10132 10131 10133 10134 10132 10130 10127 10124 10124 10122 10119 10117 10112 10107 10102 10097 10091 10085 10079 10075 10072 10070 10069 10068 10066 10063 10060 10057 10054 10050 10046 10042 10037 10034 10031 10029 10029 10026 10022 10021 10021 10018 10015 10012 10011 10010 10008 10004 10000 9997 9995 9994 9991 9989 9988 9986 9985 9985 9985 9985 9985 9984 9984 9983 9979 9977 9976 9975 9973
10176 10174 10172 10173 10172 10160 10151 10149 10140 10133 10137 10136 10128 10123 10119 10118 10121 10119 10116 10117 10118 10116 10114 10110 10105 10105 10105 10103 10101 10096 10092 10089 10085 10080 10075 10069 10064 10061 10058 10057 10056 10054 10051 10048 10045 10041 10038 10034 10029 10024 10021 10018 10016 10015 10012 10009 10008 10008 10006 10002 9999 9998 9997 9995 9991 9987 9984 9982 9980 9977 9975 9976 9974 9972 9971 9970 9970 9969 9968 9969 9969 9966 9963 9962 9960 9958
10164 10163 10162 10159 10151 10141 10135 10136 10129 10120 10119 10121 10118 10112 10107 10107 10109 10107 10103 10101 10099 10098 10096 10091 10088 10088 10087 10085 10082 10079 10076 10073 10068 10065 10062 10057 10053 10050 10046 10044 10043 10040 10038 10036 10032 10029 10026 10021 10016 10012 10009 10006 10004 10001 9999 9996 9996 9996 9993 9989 9987 9987 9985 9982 9978 9974 9972 9969 9966 9964 9964 9963 9962 9960 9958 9957 9955 9954 9953 9954 9953 9951 9949 9948 9947 9945
10151 10152 10152 10139 10129 10127 10126 10121 10111 10102 10103 10111 10110 10103 10101 10102 10101 10096 10090 10085 10082 10081 10080 10076 10073 10072 10070 10069 10066 10063 10060 10055 10051 10049 10047 10044 10041 10038 10035 10032 10029 10026 10024 10022 10019 10016 10013 10008 10004 10001 9997 9994 9992 9988 9985 9984 9983 9982 9979 9976 9976 9975 9973 9969 9965 9961 9959 9957 9955 9953 9953 9951 9949 9948 9946 9945 9943 9940 9939 9939 9939 9937 9934 9932 9932 9933
10137 10140 10136 10116 10107 10115 10116 10106 10092 10084 10091 10103 10102 10095 10094 10095 10091 10083 10077 10072 10069 10067 10064 10062 10059 10057 10055 10055 10052 10047 10043 10039 10035 10033 10032 10029 10028 10026 10023 10020 10016 10013 10010 10007 10005 10002 9999 9995 9992 9989 9985 9983 9980 9976 9973 9972 9971 9970 9967 9964 9964 9963 9960 9957 9953 9949 9946 9945 9943 9942 9941 9940 9937 9936 9934 9933 9932 9929 9925 9923 9924 9925 9924 9920 9917 9918
10126 10124 10115 10096 10091 10099 10101 10092 10079 10071 10079 10092 10094 10088 10085 10083 10078 10072 10067 10063 10060 10056 10051 10048 10046 10044 10042 10041 10038 10033 10029 10025 10023 10020 10018 10017 10015 10014 10011 10007 10004 10001 9998 9995 9992 9989 9985 9982 9980 9977 9974 9971 9968 9964 9961 9960 9960 9958 9955 9953 9953 9951 9948 9946 9943 9938 9934 9933 9931 9931 9930 9929 9927 9924 9923 9922 9921 9919 9915 9910 9907 9908 9911 9910 9907 9904